W4SNA-4 Weather Reports


Display with metric or nautical units.
time (UTC)temp
F
wind
direction
speed
MPH
gust
MPH
rain 1hr
in
rain 24hr
in
rain mn
in
humidity
%
barometer
mb
20260903022340 87 0 0.0 0.0 0.00 0.00 0.00 55 1013.6
20260903021843 87 0 0.0 0.0 0.00 0.00 0.00 56 1013.6
20260903021339 88 0 0.0 0.0 0.00 0.00 0.00 56 1013.6
20260903020840 87 0 0.0 0.0 0.00 0.00 0.00 56 1013.6
20260903020339 87 0 0.0 0.0 0.00 0.00 0.00 56 1013.6
20260903015840 87 0 0.0 0.0 0.00 0.00 0.00 56 1013.6
20260903015339 87 0 0.0 0.0 0.00 0.00 0.00 57 1013.5
20260903014842 87 0 0.0 0.0 0.00 0.00 0.00 57 1013.5
20260903014340 87 0 0.0 0.0 0.00 0.00 0.00 57 1013.5
20260903013844 87 0 0.0 0.0 0.00 0.00 0.00 56 1013.2
20260903013340 87 0 0.0 0.0 0.00 0.00 0.00 57 1013.2
20260903012839 87 0 0.0 0.0 0.00 0.00 0.00 57 1013.2
20260903012340 87 0 0.0 0.0 0.00 0.00 0.00 57 1013.1
20260903011840 88 0 0.0 0.0 0.00 0.00 0.00 57 1013.1
20260903011354 88 0 0.0 0.0 0.00 0.00 0.00 57 1013.1
20260903010839 88 0 0.0 0.0 0.00 0.00 0.00 57 1013.0
20260903010339 88 0 0.0 0.0 0.00 0.00 0.00 57 1013.0
20260903005840 88 0 0.0 0.0 0.00 0.00 0.00 57 1013.0
20260903005339 88 0 0.0 0.0 0.00 0.00 0.00 57 1013.0
20260903004840 88 0 0.0 0.0 0.00 0.00 0.00 57 1013.0
20260903004339 88 0 0.0 0.0 0.00 0.00 0.00 57 1013.0
20260903003840 88 0 0.0 0.0 0.00 0.00 0.00 57 1013.0
20260903003339 88 0 0.0 0.0 0.00 0.00 0.00 57 1013.0
20260903002845 88 0 0.0 0.0 0.00 0.00 0.00 57 1013.0
20260903002340 88 0 0.0 0.0 0.00 0.00 0.00 57 1012.8
20260903001839 88 0 0.0 0.0 0.00 0.00 0.00 57 1012.8
20260903001340 88 0 0.0 0.0 0.00 0.00 0.00 57 1012.8
20260903000839 88 0 0.0 0.0 0.00 0.00 0.00 57 1012.5
20260903000340 88 0 0.0 0.0 0.00 0.00 0.00 57 1012.5
20260902235840 89 0 0.0 0.0 0.00 0.00 0.00 57 1012.5
20260902235141 89 0 0.0 0.0 0.00 0.00 0.00 57 1012.7
20260902234642 89 0 0.0 0.0 0.00 0.00 0.00 57 1012.7
20260902233833 89 0 0.0 0.0 0.00 0.00 0.00 58 1012.7
20260902233332 89 0 0.0 0.0 0.00 0.00 0.00 57 1012.7
20260902232832 89 0 0.0 0.0 0.00 0.00 0.00 57 1012.7
20260902232332 89 0 0.0 0.0 0.00 0.00 0.00 57 1012.6
20260902231835 89 0 0.0 0.0 0.00 0.00 0.00 57 1012.6
20260902231333 89 0 0.0 0.0 0.00 0.00 0.00 57 1012.6
20260902230832 90 0 0.0 0.0 0.00 0.00 0.00 57 1012.6
20260902230332 90 0 0.0 0.0 0.00 0.00 0.00 57 1012.6
20260902225832 90 0 0.0 0.0 0.00 0.00 0.00 58 1012.6
20260902225332 90 0 0.0 0.0 0.00 0.00 0.00 58 1012.6
20260902224832 90 0 0.0 0.0 0.00 0.00 0.00 57 1012.6
20260902224332 90 0 0.0 0.0 0.00 0.00 0.00 57 1012.6
20260902223832 90 0 0.0 0.0 0.00 0.00 0.00 56 1012.7
20260902223332 90 0 0.0 0.0 0.00 0.00 0.00 54 1012.7
20260902222832 91 0 0.0 0.0 0.00 0.00 0.00 55 1012.7
20260902222332 91 0 0.0 0.0 0.00 0.00 0.00 56 1012.7
20260902221834 91 0 0.0 0.0 0.00 0.00 0.00 56 1012.7
20260902221332 91 0 0.0 0.0 0.00 0.00 0.00 57 1012.7
20260902220832 91 0 0.0 0.0 0.00 0.00 0.00 56 1012.8
20260902220332 91 0 0.0 0.0 0.00 0.00 0.00 56 1012.8
20260902215832 91 0 0.0 0.0 0.00 0.00 0.00 56 1012.8
20260902215332 91 0 0.0 0.0 0.00 0.00 0.00 56 1012.9
20260902214832 92 0 0.0 0.0 0.00 0.00 0.00 56 1012.9
20260902214333 92 0 0.0 0.0 0.00 0.00 0.00 55 1012.9
20260902213832 92 0 0.0 0.0 0.00 0.00 0.00 54 1012.9
20260902213332 92 0 0.0 0.0 0.00 0.00 0.00 54 1012.9
20260902212833 92 0 0.0 0.0 0.00 0.00 0.00 54 1012.9
20260902212331 92 0 0.0 0.0 0.00 0.00 0.00 55 1013.0
20260902211832 92 0 0.0 1.0 0.00 0.00 0.00 53 1013.0
20260902211332 92 0 0.0 1.0 0.00 0.00 0.00 53 1013.0
20260902210347 92 0 0.0 0.0 0.00 0.00 0.00 54 1013.0
20260902205843 92 0 0.0 0.0 0.00 0.00 0.00 54 1013.0
20260902205343 92 0 0.0 0.0 0.00 0.00 0.00 54 1013.0
20260902204853 92 0 0.0 0.0 0.00 0.00 0.00 52 1013.0
20260902204343 92 0 0.0 0.0 0.00 0.00 0.00 52 1013.0
20260902195828 92 0 0.0 0.0 0.00 0.00 0.00 54 1013.1
20260902195328 92 0 0.0 0.0 0.00 0.00 0.00 54 1013.3
20260902194828 92 0 0.0 0.0 0.00 0.00 0.00 53 1013.3
20260902194331 92 0 0.0 0.0 0.00 0.00 0.00 53 1013.3
20260902193828 92 0 0.0 0.0 0.00 0.00 0.00 54 1013.5
20260902173501 90 0 0.0 0.0 0.00 0.00 0.00 57 1014.5
20260902173007 90 0 0.0 0.0 0.00 0.00 0.00 59 1014.5
20260902172501 90 0 0.0 0.0 0.00 0.00 0.00 58 1014.5
20260902172001 90 0 0.0 0.0 0.00 0.00 0.00 60 1014.5
20260902171500 90 0 0.0 0.0 0.00 0.00 0.00 62 1014.5
20260902171001 90 0 0.0 0.0 0.00 0.00 0.00 60 1014.6
20260902170500 90 0 0.0 0.0 0.00 0.00 0.00 61 1014.6
20260902170002 90 0 0.0 0.0 0.00 0.00 0.00 60 1014.6
20260902165501 90 0 0.0 0.0 0.00 0.00 0.00 61 1014.9
20260902165004 90 0 0.0 0.0 0.00 0.00 0.00 61 1014.9
20260902164502 90 0 0.0 0.0 0.00 0.00 0.00 61 1014.9
20260902164000 90 0 0.0 0.0 0.00 0.00 0.00 61 1015.1
20260902163504 90 0 0.0 0.0 0.00 0.00 0.00 61 1015.1
20260902163002 90 0 0.0 0.0 0.00 0.00 0.00 59 1015.1
20260902162500 89 0 0.0 0.0 0.00 0.00 0.00 59 1015.2
20260902162001 89 0 0.0 0.0 0.00 0.00 0.00 61 1015.2
20260902161500 89 0 0.0 0.0 0.00 0.00 0.00 61 1015.2
20260902161002 89 0 0.0 0.0 0.00 0.00 0.00 62 1015.2
20260902160008 89 0 0.0 0.0 0.00 0.00 0.00 63 1015.2
20260902155003 89 0 0.0 0.0 0.00 0.00 0.00 64 1015.2
20260902154505 90 0 0.0 0.0 0.00 0.00 0.00 64 1015.2
20260902154002 90 0 0.0 0.0 0.00 0.00 0.00 65 1015.2
20260902153502 89 0 0.0 0.0 0.00 0.00 0.00 62 1015.2
20260902153006 89 0 0.0 0.0 0.00 0.00 0.00 65 1015.2
20260902152506 88 0 0.0 0.0 0.00 0.00 0.00 70 1015.2
20260902151847 88 0 0.0 0.0 0.00 0.00 0.00 70 1015.2
20260902151346 88 0 0.0 0.0 0.00 0.00 0.00 69 1015.2
20260902150733 87 0 0.0 0.0 0.00 0.00 0.00 69 1015.2
20260902150233 87 0 0.0 0.0 0.00 0.00 0.00 69 1015.2
20260902145733 86 0 0.0 0.0 0.00 0.00 0.00 71 1015.2
20260902145233 86 0 0.0 0.0 0.00 0.00 0.00 72 1015.1
20260902144734 85 0 0.0 0.0 0.00 0.00 0.00 75 1015.1
20260902144239 84 0 0.0 0.0 0.00 0.00 0.00 74 1015.1
20260902143733 84 0 0.0 0.0 0.00 0.00 0.00 76 1015.0
20260902143234 84 0 0.0 0.0 0.00 0.00 0.00 76 1015.0
20260902142733 83 0 0.0 0.0 0.00 0.00 0.00 77 1015.0
20260902142233 83 0 0.0 0.0 0.00 0.00 0.00 78 1014.9
20260902141734 82 0 0.0 0.0 0.00 0.00 0.00 80 1014.9
20260902141236 81 0 0.0 0.0 0.00 0.00 0.00 80 1014.9
20260902140734 81 0 0.0 0.0 0.00 0.00 0.00 81 1014.8
20260902140233 80 0 0.0 0.0 0.00 0.00 0.00 82 1014.8
20260902135736 80 0 0.0 0.0 0.00 0.00 0.00 83 1014.8
20260902135233 79 0 0.0 0.0 0.00 0.00 0.00 84 1014.9
20260902134733 79 0 0.0 0.0 0.00 0.00 0.00 84 1014.9
20260902134233 79 0 0.0 0.0 0.00 0.00 0.00 84 1014.9
20260902133852 77 0 0.0 0.0 0.00 0.00 0.00 85 1014.9
20260902133756 79 0 0.0 0.0 0.00 0.00 0.00 85 1014.8
20260902133236 78 0 0.0 0.0 0.00 0.00 0.00 85 1014.8
20260902132733 78 0 0.0 0.0 0.00 0.00 0.00 85 1014.8
20260902132237 78 0 0.0 0.0 0.00 0.00 0.00 85 1014.9
20260902131733 77 0 0.0 0.0 0.00 0.00 0.00 85 1014.9
20260902131234 77 0 0.0 0.0 0.00 0.00 0.00 86 1014.9
20260902130735 77 0 0.0 0.0 0.00 0.00 0.00 86 1014.9
20260902130235 77 0 0.0 0.0 0.00 0.00 0.00 86 1014.9
20260902125733 77 0 0.0 0.0 0.00 0.00 0.00 86 1014.9
20260902125242 77 0 0.0 0.0 0.00 0.00 0.00 86 1014.9
20260902124734 77 0 0.0 0.0 0.00 0.00 0.00 86 1014.9
20260902124234 76 0 0.0 0.0 0.00 0.00 0.00 86 1014.9
20260902123733 76 0 0.0 0.0 0.00 0.00 0.00 86 1014.7
20260902123300 76 0 0.0 0.0 0.00 0.00 0.00 86 1014.7
20260902122734 76 0 0.0 0.0 0.00 0.00 0.00 86 1014.7
20260902122232 76 0 0.0 0.0 0.00 0.00 0.00 86 1014.7
20260902121735 76 0 0.0 0.0 0.00 0.00 0.00 86 1014.7
20260902121234 76 0 0.0 0.0 0.00 0.00 0.00 86 1014.7
20260902120507 76 0 0.0 0.0 0.00 0.00 0.00 86 1014.6
20260902120006 76 0 0.0 0.0 0.00 0.00 0.00 86 1014.6
20260902115508 76 0 0.0 0.0 0.00 0.00 0.00 86 1014.6
20260902115006 76 0 0.0 0.0 0.00 0.00 0.00 86 1014.6
20260902114506 76 0 0.0 0.0 0.00 0.00 0.00 86 1014.6
20260902114007 76 0 0.0 0.0 0.00 0.00 0.00 86 1014.6
20260902113509 76 0 0.0 0.0 0.00 0.00 0.00 86 1014.6
20260902113007 76 0 0.0 0.0 0.00 0.00 0.00 85 1014.6
20260902112508 76 0 0.0 0.0 0.00 0.00 0.00 85 1014.4
20260902112006 76 0 0.0 0.0 0.00 0.00 0.00 86 1014.4
20260902111510 76 0 0.0 0.0 0.00 0.00 0.00 85 1014.4
20260902111005 76 0 0.0 0.0 0.00 0.00 0.00 85 1014.2
20260902110455 76 0 0.0 0.0 0.00 0.00 0.00 85 1014.2
20260902105952 76 0 0.0 0.0 0.00 0.00 0.00 85 1014.2
20260902105452 76 0 0.0 0.0 0.00 0.00 0.00 86 1014.2
20260902104952 76 0 0.0 0.0 0.00 0.00 0.00 86 1014.2
20260902104452 76 0 0.0 0.0 0.00 0.00 0.00 85 1014.2
20260902103953 76 0 0.0 0.0 0.00 0.00 0.00 85 1014.2
20260902103451 77 0 0.0 0.0 0.00 0.00 0.00 85 1014.2
20260902102952 77 0 0.0 0.0 0.00 0.00 0.00 85 1014.2
20260902102459 77 0 0.0 0.0 0.00 0.00 0.00 84 1014.3
20260902101452 77 0 0.0 0.0 0.00 0.00 0.00 84 1014.3
20260902100951 77 0 0.0 0.0 0.00 0.00 0.00 84 1014.2
20260902100452 77 0 0.0 0.0 0.00 0.00 0.00 84 1014.2
20260902095956 77 0 0.0 0.0 0.00 0.00 0.00 85 1014.2
20260902095452 77 0 0.0 0.0 0.00 0.00 0.00 86 1014.1
20260902094957 76 0 0.0 0.0 0.00 0.00 0.00 86 1014.1
20260902094451 76 0 0.0 0.0 0.00 0.00 0.00 87 1014.1
20260902093751 76 0 0.0 0.0 0.00 0.00 0.00 87 1014.1
20260902093251 76 0 0.0 0.0 0.00 0.00 0.00 87 1014.1
20260902092751 76 0 0.0 0.0 0.00 0.00 0.00 87 1014.1
20260902092425 76 0 0.0 0.0 0.00 0.00 0.00 87 1014.1
20260902091750 76 0 0.0 0.0 0.00 0.00 0.00 87 1014.1
20260902091251 76 0 0.0 0.0 0.00 0.00 0.00 87 1014.1
20260902090751 76 0 0.0 0.0 0.00 0.00 0.00 88 1014.0
20260902090257 76 0 0.0 0.0 0.00 0.00 0.00 88 1014.0
20260902085751 76 0 0.0 0.0 0.00 0.00 0.00 88 1014.0
20260902085250 76 0 0.0 0.0 0.00 0.00 0.00 88 1013.7
20260902084751 76 0 0.0 0.0 0.00 0.00 0.00 88 1013.7
20260902084252 76 0 0.0 0.0 0.00 0.00 0.00 88 1013.7
20260902083752 76 0 0.0 0.0 0.00 0.00 0.00 87 1013.6
20260902083251 76 0 0.0 0.0 0.00 0.00 0.00 87 1013.6
20260902082751 76 0 0.0 0.0 0.00 0.00 0.00 87 1013.6
20260902082251 77 0 0.0 0.0 0.00 0.00 0.00 87 1013.6
20260902081752 77 0 0.0 0.0 0.00 0.00 0.00 87 1013.6
20260902081458 77 0 0.0 0.0 0.00 0.00 0.00 87 1013.6
20260902081251 77 0 0.0 0.0 0.00 0.00 0.00 87 1013.6
20260902080754 77 0 0.0 0.0 0.00 0.00 0.00 86 1013.6
20260902080251 77 0 0.0 0.0 0.00 0.00 0.00 86 1013.6
20260902075751 77 0 0.0 0.0 0.00 0.00 0.00 86 1013.6
20260902075250 77 0 0.0 0.0 0.00 0.00 0.00 86 1013.7
20260902074752 77 0 0.0 0.0 0.00 0.00 0.00 85 1013.7
20260902074254 78 0 0.0 0.0 0.00 0.00 0.00 85 1013.7
20260902073751 78 0 0.0 0.0 0.00 0.00 0.00 85 1013.6
20260902073251 78 0 0.0 0.0 0.00 0.00 0.00 84 1013.6
20260902072750 78 0 0.0 0.0 0.00 0.00 0.00 84 1013.6
20260902072251 78 0 0.0 0.0 0.00 0.00 0.00 84 1013.6
20260902071752 78 0 0.0 0.0 0.00 0.00 0.00 83 1013.6
20260902071251 79 0 0.0 0.0 0.00 0.00 0.00 83 1013.6
20260902071023 79 0 0.0 0.0 0.00 0.00 0.00 82 1013.6
20260902070751 79 0 0.0 0.0 0.00 0.00 0.00 82 1013.6
20260902070435 79 0 0.0 0.0 0.00 0.00 0.00 82 1013.6
20260902070251 79 0 0.0 0.0 0.00 0.00 0.00 82 1013.6
20260902065830 79 0 0.0 0.0 0.00 0.00 0.00 82 1013.6
20260902065751 79 0 0.0 0.0 0.00 0.00 0.00 82 1013.6
20260902065250 79 0 0.0 0.0 0.00 0.00 0.00 82 1013.6
20260902064751 79 0 0.0 0.0 0.00 0.00 0.00 81 1013.6
20260902064251 80 0 0.0 0.0 0.00 0.00 0.00 81 1013.6
20260902063751 80 0 0.0 0.0 0.00 0.00 0.00 79 1013.7
20260902063329 80 0 0.0 0.0 0.00 0.00 0.00 79 1013.7
20260902063257 80 0 0.0 0.0 0.00 0.00 0.00 79 1013.7
20260902062751 80 0 0.0 0.0 0.00 0.00 0.00 80 1013.7
20260902062252 80 0 0.0 0.0 0.00 0.00 0.00 80 1013.7
20260902061750 80 0 0.0 0.0 0.00 0.00 0.00 79 1013.7
20260902061251 81 0 0.0 0.0 0.00 0.00 0.00 78 1013.7
20260902060750 81 0 0.0 0.0 0.00 0.00 0.00 77 1013.6
20260902060251 81 0 0.0 0.0 0.00 0.00 0.00 77 1013.6
20260902055751 81 0 0.0 0.0 0.00 0.00 0.00 76 1013.6
20260902055250 81 0 0.0 0.0 0.00 0.00 0.00 75 1013.6
20260902054751 81 0 0.0 0.0 0.00 0.00 0.00 74 1013.6
20260902054251 82 0 0.0 0.0 0.00 0.00 0.00 74 1013.6
20260902053751 82 0 0.0 0.0 0.00 0.00 0.00 75 1013.6
20260902053250 82 0 0.0 0.0 0.00 0.00 0.00 74 1013.6
20260902052758 81 0 0.0 0.0 0.00 0.00 0.00 74 1013.6
20260902052251 81 0 0.0 0.0 0.00 0.00 0.00 75 1013.6
20260902051750 81 0 0.0 0.0 0.00 0.00 0.00 75 1013.6
20260902051254 81 0 0.0 0.0 0.00 0.00 0.00 75 1013.6
20260902050750 81 0 0.0 0.0 0.00 0.00 0.00 75 1013.6
20260902050251 81 0 0.0 0.0 0.00 0.00 0.00 76 1013.6
20260902045750 81 0 0.0 0.0 0.00 0.00 0.00 77 1013.6
20260902045257 81 0 0.0 0.0 0.00 0.00 0.00 76 1013.6
20260902044751 81 0 0.0 0.0 0.00 0.00 0.00 76 1013.6
20260902044251 81 0 0.0 0.0 0.00 0.00 0.00 75 1013.6
20260902043751 81 0 0.0 0.0 0.00 0.00 0.00 75 1013.6
20260902043250 81 0 0.0 0.0 0.00 0.00 0.00 75 1013.6
20260902042751 81 0 0.0 0.0 0.00 0.00 0.00 75 1013.6
20260902042046 81 0 0.0 0.0 0.00 0.00 0.00 75 1013.6
20260902041546 82 0 0.0 0.0 0.00 0.00 0.00 75 1013.6
20260902041046 82 0 0.0 0.0 0.00 0.00 0.00 74 1013.7
20260902040546 82 0 0.0 0.0 0.00 0.00 0.00 73 1013.7
20260902040046 83 0 0.0 0.0 0.00 0.00 0.00 73 1013.7
20260902035548 83 0 0.0 0.0 0.00 0.00 0.00 71 1013.7
20260902035046 84 0 0.0 0.0 0.00 0.00 0.00 69 1013.7
20260902034546 84 0 0.0 0.0 0.00 0.00 0.00 66 1013.7
20260902034046 85 0 0.0 0.0 0.00 0.00 0.00 64 1013.7
20260902033554 85 0 0.0 0.0 0.00 0.00 0.00 63 1013.7
20260902033046 85 0 0.0 0.0 0.00 0.00 0.00 62 1013.7
20260902032550 85 0 0.0 0.0 0.00 0.00 0.00 61 1013.6
20260902032046 86 0 0.0 0.0 0.00 0.00 0.00 61 1013.6
20260902031546 86 0 0.0 0.0 0.00 0.00 0.00 61 1013.6
20260902031045 86 0 0.0 0.0 0.00 0.00 0.00 62 1013.7
20260902030546 86 0 0.0 0.0 0.00 0.00 0.00 60 1013.7
20260902030046 86 0 0.0 0.0 0.00 0.00 0.00 60 1013.7
20260902025549 86 0 0.0 0.0 0.00 0.00 0.00 61 1013.7
20260902025046 86 0 0.0 0.0 0.00 0.00 0.00 61 1013.7
20260902024355 86 0 0.0 0.0 0.00 0.00 0.00 61 1013.7
20260902023858 86 0 0.0 0.0 0.00 0.00 0.00 61 1013.7
20260902023355 86 0 0.0 0.0 0.00 0.00 0.00 61 1013.7
20260902022856 86 0 0.0 0.0 0.00 0.00 0.00 61 1013.7